This is the latest recevied weather packets stored in our database for station/object KJ7IVE-13. If no packets are shown the sender has not sent any weather packets the latest 1 day(s).
| Time | Temp. | Humidity | Pressure | Rain* | Wind** | Luminosity | Snow |
|---|---|---|---|---|---|---|---|
| 1778039218 | 13.89° C | 10% | 1011 hPa | 0 mm | 0 m/s | 0 W/m² | - |
| 1778038915 | 13.89° C | 10% | 1010.8 hPa | 0 mm | 0.45 m/s, 141° | 0 W/m² | - |
| 1778038613 | 13.33° C | 10% | 1010.9 hPa | 0 mm | 0 m/s | 0 W/m² | - |
| 1778038309 | 13.89° C | 10% | 1010.8 hPa | 0 mm | 0.45 m/s, 231° | 0 W/m² | - |
| 1778038006 | 14.44° C | 10% | 1011 hPa | 0 mm | 0.45 m/s, 186° | 0 W/m² | - |
| 1778037703 | 14.44° C | 10% | 1011 hPa | 0 mm | 0.45 m/s, 169° | 0 W/m² | - |
| 1778037400 | 14.44° C | 10% | 1010.8 hPa | 0 mm | 0.89 m/s, 167° | 0 W/m² | - |
| 1778037097 | 14.44° C | 10% | 1010.9 hPa | 0 mm | 0.45 m/s, 174° | 0 W/m² | - |
| 1778036796 | 14.44° C | 10% | 1010.6 hPa | 0 mm | 0.89 m/s, 156° | 0 W/m² | - |
| 1778036493 | 14.44° C | 10% | 1010.7 hPa | 0 mm | 0.89 m/s, 179° | 0 W/m² | - |
| 1778036189 | 15° C | 10% | 1010.5 hPa | 0 mm | 0.89 m/s, 177° | 0 W/m² | - |
| 1778035885 | 15° C | 10% | 1010.3 hPa | 0 mm | 1.79 m/s, 159° | 0 W/m² | - |
| 1778035583 | 15° C | 10% | 1010.1 hPa | 0 mm | 1.34 m/s, 157° | 0 W/m² | - |
| 1778035279 | 15° C | 10% | 1010.3 hPa | 0 mm | 0.89 m/s, 170° | 0 W/m² | - |
| 1778034976 | 15° C | 10% | 1010.1 hPa | 0 mm | 0.89 m/s, 162° | 0 W/m² | - |
| 1778034673 | 15° C | 10% | 1010.2 hPa | 0 mm | 0 m/s | 0 W/m² | - |
| 1778034370 | 15° C | 10% | 1010.1 hPa | 0 mm | 0.89 m/s, 181° | 1 W/m² | - |
| 1778034067 | 15.56° C | 10% | 1010 hPa | 0 mm | 1.34 m/s, 199° | 4 W/m² | - |
| 1778033765 | 15.56° C | 10% | 1010 hPa | 0 mm | 0.45 m/s, 185° | 8 W/m² | - |
| 1778033462 | 15.56° C | 10% | 1010 hPa | 0 mm | 1.79 m/s, 187° | 9 W/m² | - |
| 1778033159 | 16.11° C | 10% | 1009.9 hPa | 0 mm | 1.34 m/s, 197° | 14 W/m² | - |
| 1778032857 | 16.11° C | 10% | 1010 hPa | 0 mm | 1.34 m/s, 200° | 19 W/m² | - |
| 1778032554 | 16.11° C | 10% | 1009.7 hPa | 0 mm | 3.13 m/s, 192° | 21 W/m² | - |
| 1778032251 | 16.11° C | 10% | 1009.9 hPa | 0 mm | 4.92 m/s, 194° | 27 W/m² | - |
| 1778031948 | 16.11° C | 10% | 1009.9 hPa | 0 mm | 1.79 m/s, 185° | 33 W/m² | - |
* Rain latest hour (hover to see other rain measurements)
** Current wind speed in m/s (hover to see current wind gust speed)